Simultaneous Nadir Overpasses (SNOs) Predictions

Prediction of SNOs between AQUA and METOP-C Satellite Orbit:

Table of predicted SNOs for the next 14.0 days since TLE Epoch: 11/12/2022
Index Date (AQUA) Time (AQUA) Lat,Lon (AQUA) SZA (AQUA ) Date (METOP-C) Time (METOP-C) Lat,Lon (METOP-C) SZA (METOP-C ) Distance(km) Time Diff (sec)
1 11/13/2022 19:47:49 74.08,-121.90 92.11 11/13/2022 19:47:07 74.08,-121.90 92.11 1.00 42
2 11/13/2022 20:37:15 -74.15, 45.60 87.82 11/13/2022 20:37:48 -74.16, 45.62 87.81 0.94 33
3 11/16/2022 14:31:37 -74.06, 137.22 87.20 11/16/2022 14:30:51 -74.08, 137.19 87.18 2.33 46
4 11/16/2022 15:21:05 74.13, -55.29 92.87 11/16/2022 15:21:29 74.13, -55.35 92.88 2.09 24
5 11/19/2022 09:15:27 74.09, 36.22 93.50 11/19/2022 09:14:31 74.10, 36.33 93.51 3.70 56
6 11/19/2022 10:04:53 -74.15,-156.27 86.44 11/19/2022 10:05:13 -74.13,-156.29 86.46 2.49 20
7 11/19/2022 10:54:33 74.83, 9.70 94.27 11/19/2022 10:55:38 74.82, 12.86 94.24 91.92 65
8 11/22/2022 03:59:13 -74.06, -64.62 85.92 11/22/2022 03:58:15 -74.08, -64.65 85.89 3.35 58
9 11/22/2022 04:48:41 74.13, 102.85 94.17 11/22/2022 04:48:53 74.15, 102.84 94.18 1.85 12
10 11/22/2022 05:38:17 -74.69, -90.86 85.26 11/22/2022 05:39:24 -74.70, -88.39 85.26 72.61 67
11 11/24/2022 22:43:00 74.09,-165.63 94.69 11/24/2022 22:41:54 74.10,-165.52 94.71 3.57 66
12 11/24/2022 23:32:26 -74.14, 1.91 85.26 11/24/2022 23:32:35 -74.16, 1.95 85.23 3.01 9



Historial Predications of SNOs between AQUA and METOP-C
